Weather in Mukshi

Russia / Udmurt Republic     57°14′23″N   53°23′34″E
temp.,
°C
wind,
m/s
gust,
m/s
humid.,
%
clouds,
%
prec.,
mm/h
press.,
hPa
HPBL,
m
27 october, wed
wed2701:000sw41096100 0.3 1017445
04:000sw41088100 0.4 1017424
07:000sw4987100 0.0 1016430
10:00+1sw5983100 0.0 1015437
13:00+3sw5975100 0.0 1014637
16:00+2sw51078100 0.0 1013573
19:00+2sw51283100 0.0 1012485
22:00+2sw51279100 0.0 1010565
28 october, thu
thu2801:00+1sw61497100 0.3 1008578
04:00+1sw61497100 1.4 1006731
07:00+2wsw61397100 0.8 1005904
10:00+3wsw71397100 1.2 1006873
13:00+4w71396100 0.4 1007901
16:00+5wsw61286100 0.5 1008755
19:00+4wsw61188100 0.1 1009687
22:00+4w51097100 1.4 10091027
29 october, fri
fri2901:00−1n6108288 1.1 1014611
04:00−5n511826 1.1 1018580
07:00−5nnw49805 0.0 1022513
10:00−4nnw46675 0.0 1025535
13:00−2nw34535 0.0 1027702
16:00−2wnw35565 0.0 1028401
19:00−3wsw2466100 0.0 1028114
22:00−2sw3862100 0.0 1028405
30 october, sat
sat3001:00−2ssw51355100 0.2 1025555
04:00−1sw71561100 0.4 1022779
07:00−1sw71687100 0.6 1019726
10:00+2wsw71688100 0.6 1017751
13:00+4w71695100 0.0 1017729
16:00+5w71594100 0.0 1018670
19:00+5w61493100 0.0 1020564
22:00+4wnw51295100 0.0 1022446
31 october, sun
sun3101:00+4wnw4997100 0.0 1023281
04:00+3w3698100 0.1 1024188
07:00+4w2797100 0.0 1025183
10:00+5wsw3893100 0.0 1025284
13:00+6sw3895100 0.0 1025299
16:00+6sw41095100 0.0 1024356
19:00+6sw51293100 0.0 1023398
22:00+4wsw51385100 0.0 1022400